[[{"header":{"parameterUnit":"m.s-1","parameterCategory":1,"la1":30.2991,"la2":30.254,"lo1":-89.0895,"lo2":-89.0444,"dy":0.0017,"dx":0.0017,"nx":28,"ny":28,"refTime":"2025-04-14T03:00:00:Z","depth":0,"parameterNumber":2,"parameterNumberName":"U-component_of_WINDS"},"data":[0,0,0,0,0,0,0,0,0,0,0,0,0,0,0,0,0,0,0,0,0,0,0,0,0,0,0,0,0,0,0,0,0,0,0,0,0,0,0,0,0,0,0,0,0,0,0,0,0,0,0,0,0,0,0,0,0,0,3.9745,3.9746,0,3.986,3.9861,3.9862,3.9795,3.9791,3.9788,3.9785,3.9905,3.9911,3.9917,0,0,0,0,0,0,0,0,0,0,0,0,0,3.947,3.9475,3.9744,3.9746,3.9747,3.9859,3.9861,3.9862,3.9795,3.9791,3.9787,3.9783,3.9903,3.991,3.9918,0,0,0,0,0,0,0,0,0,0,0,0,0,3.9588,3.9477,3.9744,3.9727,3.9727,3.9859,3.9861,3.9863,3.9796,3.9791,3.9786,3.9782,3.99,3.991,3.9919,4.0075,0,0,3.9947,3.9952,0,0,0,0,0,0,0,0,3.9581,3.9598,3.9728,3.9729,3.9728,3.9808,3.9808,3.9934,3.9797,3.977,3.9785,3.9779,3.9877,3.9888,3.992,4.0081,4.0086,3.9948,3.9954,3.9958,3.9961,0,0,0,0,0,0,0,3.9573,3.9592,3.979,3.973,3.973,3.9715,3.9726,3.9832,3.9849,3.9772,3.9767,3.9782,3.9876,3.9911,3.9922,4.0087,3.9948,3.9956,3.9962,3.9966,4.0385,4.039,0,0,0,0,0,0,3.9566,3.9586,3.9786,3.9793,3.9641,3.9724,3.9736,3.9787,3.9848,3.9853,3.9786,3.9778,3.9898,3.9912,3.9926,4.0115,3.9958,3.9967,3.9972,4.0379,4.0386,4.0392,0,0,0,0,0,0,3.956,3.9584,3.9782,3.9689,3.9712,3.9734,3.9791,3.9792,3.9827,3.9859,3.9862,3.9818,3.9894,3.9913,4.0039,4.0118,3.9971,3.9979,4.0373,4.0381,4.0389,4.0493,0,0,0,0,0,0,3.9552,3.9582,3.9641,3.969,3.9718,3.9892,3.9796,3.9798,3.9843,3.9835,3.989,3.9895,3.9892,4.0025,4.0048,4.0129,3.9987,4.0366,4.0377,4.0386,4.0483,4.0504,4.0522,0,0,0,0,0,3.9543,3.9665,3.9644,3.9669,3.9791,3.9896,3.9912,3.9906,3.985,3.991,3.993,3.9893,4.0106,4.0039,4.0064,4.0148,4.0361,4.0374,4.0386,4.0474,4.05,4.0521,0,0,0,0,0,0,3.9625,3.9672,3.9648,3.9791,3.984,3.9885,3.996,3.9933,3.9999,3.9988,3.9979,3.9992,4.0124,4.0148,4.0073,4.0304,4.0225,4.0243,4.0283,4.0308,4.0327,4.0319,3.9995,0,0,0,0,0,3.966,3.974,3.9777,3.9899,3.9925,3.9938,3.9984,3.9975,4.0026,4.0046,4.0076,4.0128,4.0206,4.0258,4.0332,4.0486,4.0498,4.0556,4.0576,4.0592,4.0608,4.0694,4.0721,4.0433,4.0433,4.0432,0,0,3.9732,3.9767,3.9819,3.9916,3.9953,4.0038,3.9956,4.0049,4.0112,4.0061,4.0182,4.0205,4.0263,4.0404,4.0467,4.0428,4.0691,4.0608,4.062,4.0628,4.0709,4.0737,4.0761,4.0441,4.044,4.0438,0,0,3.9908,3.9942,4.0048,4.0088,4.0145,4.0154,4.0179,4.0229,4.0243,4.0364,4.0327,4.0403,4.0538,4.0581,4.0621,4.0816,4.0785,4.084,4.0944,4.1027,4.105,4.107,4.1142,4.1167,4.0856,4.0856,4.0857,0,3.9991,4.0116,4.0107,4.0203,4.0248,4.0205,4.0314,4.0353,4.0432,4.0465,4.042,4.059,4.0625,4.0777,4.0825,4.0858,4.0889,4.0834,4.1047,4.1067,4.1086,4.1154,4.1181,4.0863,4.0862,4.0861,4.0861,0,4.0217,4.0305,4.0384,4.0462,4.0516,4.0618,4.0625,4.0681,4.0668,4.0682,4.0807,4.0848,4.0931,4.0966,4.0954,4.1118,4.1092,4.1048,4.0968,4.112,4.1184,4.121,4.0872,4.087,4.0868,4.0866,0,0,4.0447,4.0519,4.0549,4.0585,4.0646,4.0714,4.0815,4.0896,4.0945,4.1002,4.1088,4.1204,4.1164,4.121,4.1202,4.1275,4.143,4.1222,4.1224,4.1261,4.1615,4.165,4.168,4.141,4.1414,4.1418,4.1611,0,4.0628,4.0804,4.08,4.0964,4.1047,4.1008,4.1097,4.1145,4.1161,4.1235,4.1252,4.1336,4.1276,4.1303,4.1374,4.1396,4.1501,4.1382,4.1492,4.1496,4.148,4.1713,4.1749,4.1929,4.1636,4.164,4.1643,0,4.0862,4.0927,4.11,4.1152,4.1186,4.1266,4.1341,4.1411,4.1465,4.1472,4.1524,4.1506,4.161,4.1527,4.1673,4.1592,4.1637,4.1655,4.1662,4.1673,4.1579,4.1732,4.1986,4.2014,4.1682,4.1679,4.1676,0,4.1016,4.1146,4.1267,4.1299,4.1361,4.1418,4.1447,4.1497,4.1547,4.1612,4.1645,4.1722,4.1765,4.1826,4.183,4.1769,4.1978,4.1895,4.1988,4.1989,4.2035,4.2032,4.2301,4.2061,4.2061,4.206,4.206,0,4.1219,4.1327,4.1337,4.1412,4.1532,4.1527,4.1646,4.167,4.1715,4.1795,4.1766,4.1842,4.1841,4.1919,4.1923,4.2045,4.2064,4.2074,4.2074,4.2077,4.2076,4.2107,4.2095,4.2068,4.2066,4.2065,4.2063,0,4.1411,4.1422,4.1552,4.16,4.1615,4.1702,4.1745,4.1817,4.183,4.1932,4.1956,4.1978,4.2069,4.2078,4.2183,4.2186,4.2333,4.2319,4.2315,4.2313,4.2407,4.2399,4.2707,4.2748,4.248,4.2482,4.2484,0,4.1541,4.1623,4.1681,4.1732,4.1765,4.1847,4.1898,4.1896,4.1951,4.202,4.2085,4.2172,4.2242,4.2389,4.2415,4.2496,4.2485,4.2587,4.2497,4.2499,4.2489,4.2485,4.2494,4.2605,4.2608,4.261,4.2612,0,4.1771,4.1773,4.1847,4.1924,4.1985,4.2046,4.2103,4.2146,4.2152,4.2215,4.2307,4.2361,4.2469,4.2557,4.2637,4.2668,4.2643,4.264,4.2667,4.2672,4.2667,4.2673,4.2364,4.2634,4.2631,4.263,4.2629,4.2628,4.1937,4.201,4.2062,4.2147,4.2189,4.2243,4.2314,4.2337,4.2414,4.2501,4.2496,4.2598,4.2653,4.2758,4.2795,4.2876,4.2842,4.288,4.289,4.2899,4.291,4.2653,4.289,4.289,4.2889,4.2889,4.2888,0,4.2168,4.22,4.2278,4.2358,4.2425,4.2394,4.2456,4.2514,4.2605,4.2658,4.2727,4.2835,4.292,4.2954,4.3039,4.3097,4.3088,4.312,4.3116,4.3124,4.2934,4.2904,4.3126,4.3126,4.3126,4.3126,4.3126,4.3126,4.2296,4.2417,4.2426,4.2569,4.26,4.27,4.2739,4.2789,4.2832,4.2953,4.3024,4.3045,4.3091,4.3179,4.3257,4.3265,4.3299,4.3336,4.3339,4.3161,4.3137,4.3114,4.3086,4.3343,4.3343,4.3523,4.3525,4.3526]},{"header":{"parameterUnit":"m.s-1","parameterCategory":1,"la1":30.2991,"la2":30.254,"lo1":-89.0895,"lo2":-89.0444,"dy":0.0017,"dx":0.0017,"nx":28,"ny":28,"refTime":"2025-04-14T03:00:00:Z","depth":0,"parameterNumber":3,"parameterNumberName":"V-component_of_WINDS"},"data":[0,0,0,0,0,0,0,0,0,0,0,0,0,0,0,0,0,0,0,0,0,0,0,0,0,0,0,0,0,0,0,0,0,0,0,0,0,0,0,0,0,0,0,0,0,0,0,0,0,0,0,0,0,0,0,0,0,0,-3.3655,-3.3655,0,-3.3661,-3.3661,-3.3661,-3.3672,-3.3672,-3.3672,-3.3673,-3.3675,-3.3675,-3.3674,0,0,0,0,0,0,0,0,0,0,0,0,0,-3.3651,-3.3651,-3.3655,-3.3655,-3.3655,-3.3661,-3.3661,-3.3661,-3.3672,-3.3672,-3.3672,-3.3673,-3.3675,-3.3675,-3.3674,0,0,0,0,0,0,0,0,0,0,0,0,0,-3.3654,-3.3651,-3.3655,-3.3661,-3.3662,-3.3661,-3.3661,-3.3661,-3.3672,-3.3672,-3.3672,-3.3673,-3.3675,-3.3675,-3.3674,-3.3666,0,0,-3.3674,-3.3674,0,0,0,0,0,0,0,0,-3.3654,-3.3654,-3.366,-3.3661,-3.3662,-3.3666,-3.366,-3.3662,-3.3672,-3.3668,-3.3673,-3.3673,-3.3671,-3.3671,-3.3672,-3.3666,-3.3666,-3.3674,-3.3674,-3.3673,-3.3673,0,0,0,0,0,0,0,-3.3654,-3.3654,-3.3657,-3.366,-3.3661,-3.3663,-3.3664,-3.3661,-3.3667,-3.3668,-3.3669,-3.367,-3.3672,-3.3672,-3.3672,-3.3666,-3.3674,-3.3674,-3.3673,-3.3673,-3.3655,-3.3655,0,0,0,0,0,0,-3.3653,-3.3654,-3.3657,-3.3657,-3.3659,-3.3663,-3.3664,-3.3664,-3.3668,-3.3669,-3.367,-3.367,-3.3672,-3.3672,-3.3672,-3.3663,-3.3673,-3.3673,-3.3673,-3.3656,-3.3655,-3.3655,0,0,0,0,0,0,-3.3653,-3.3653,-3.3657,-3.3656,-3.3656,-3.3663,-3.3663,-3.3664,-3.3664,-3.3669,-3.367,-3.3669,-3.3672,-3.3672,-3.3668,-3.3663,-3.3673,-3.3673,-3.3656,-3.3655,-3.3655,-3.3644,0,0,0,0,0,0,-3.3653,-3.3653,-3.3651,-3.3656,-3.3656,-3.3653,-3.3663,-3.3664,-3.3664,-3.3665,-3.3668,-3.3669,-3.3673,-3.3668,-3.3668,-3.3663,-3.3673,-3.3656,-3.3656,-3.3655,-3.3645,-3.3643,-3.3642,0,0,0,0,0,-3.3653,-3.3646,-3.365,-3.3651,-3.3653,-3.3653,-3.3653,-3.3659,-3.3664,-3.3661,-3.3664,-3.3669,-3.3664,-3.3668,-3.3667,-3.3662,-3.3657,-3.3656,-3.3655,-3.3646,-3.3644,-3.3642,0,0,0,0,0,0,-3.3639,-3.3647,-3.3652,-3.3647,-3.3649,-3.3655,-3.3651,-3.3656,-3.3657,-3.3657,-3.3663,-3.3664,-3.3659,-3.366,-3.3664,-3.3655,-3.3661,-3.366,-3.3654,-3.3652,-3.3651,-3.365,-3.3673,0,0,0,0,0,-3.3636,-3.3635,-3.3642,-3.3637,-3.3639,-3.3645,-3.3645,-3.3649,-3.3651,-3.3652,-3.3655,-3.3656,-3.3655,-3.3653,-3.3653,-3.3646,-3.3646,-3.3642,-3.3641,-3.3639,-3.3638,-3.3635,-3.3633,-3.3652,-3.3652,-3.3652,0,0,-3.3628,-3.3633,-3.3632,-3.3635,-3.3637,-3.3636,-3.3645,-3.3644,-3.3643,-3.3651,-3.3648,-3.365,-3.3652,-3.3646,-3.3644,-3.3647,-3.3633,-3.3638,-3.3637,-3.3637,-3.3634,-3.3632,-3.3631,-3.3652,-3.3652,-3.3652,0,0,-3.3614,-3.3617,-3.3614,-3.3617,-3.3621,-3.3626,-3.3625,-3.363,-3.3632,-3.3629,-3.3636,-3.3634,-3.3632,-3.3633,-3.3634,-3.3622,-3.3626,-3.3621,-3.3613,-3.361,-3.3608,-3.3607,-3.3603,-3.3601,-3.362,-3.362,-3.362,0,-3.3604,-3.3603,-3.3611,-3.361,-3.3611,-3.3621,-3.3617,-3.3619,-3.3622,-3.3622,-3.3626,-3.3624,-3.3626,-3.3621,-3.3619,-3.3619,-3.3618,-3.362,-3.3608,-3.3607,-3.3606,-3.3602,-3.36,-3.362,-3.362,-3.362,-3.362,0,-3.3591,-3.3591,-3.3587,-3.3592,-3.3593,-3.359,-3.3597,-3.3597,-3.3602,-3.3606,-3.3602,-3.3605,-3.3605,-3.3605,-3.3608,-3.3601,-3.3603,-3.3607,-3.3614,-3.3603,-3.36,-3.3598,-3.3619,-3.3619,-3.3619,-3.3619,0,0,-3.3567,-3.3577,-3.3576,-3.3579,-3.3584,-3.3584,-3.3582,-3.3584,-3.3583,-3.3585,-3.3583,-3.3582,-3.3587,-3.3587,-3.3592,-3.3589,-3.358,-3.3594,-3.3594,-3.3591,-3.3571,-3.3568,-3.3566,-3.3583,-3.3583,-3.3583,-3.3571,0,-3.3554,-3.3552,-3.356,-3.3556,-3.3556,-3.3565,-3.3563,-3.3566,-3.357,-3.357,-3.3574,-3.3573,-3.358,-3.358,-3.3578,-3.3581,-3.3576,-3.3582,-3.3581,-3.358,-3.358,-3.3564,-3.356,-3.3549,-3.357,-3.357,-3.3569,0,-3.3538,-3.3541,-3.3538,-3.3545,-3.3545,-3.3543,-3.3546,-3.3546,-3.355,-3.3553,-3.3554,-3.356,-3.3558,-3.3564,-3.3561,-3.3566,-3.3566,-3.3567,-3.3567,-3.3567,-3.3574,-3.3563,-3.3545,-3.3544,-3.3567,-3.3567,-3.3568,0,-3.3522,-3.3525,-3.3523,-3.3525,-3.3533,-3.3532,-3.3535,-3.3539,-3.354,-3.3542,-3.3543,-3.3544,-3.3544,-3.3545,-3.3551,-3.3555,-3.3547,-3.3554,-3.3549,-3.3549,-3.3546,-3.3546,-3.3528,-3.3547,-3.3547,-3.3547,-3.3547,0,-3.3506,-3.3503,-3.3516,-3.3514,-3.3512,-3.3521,-3.3517,-3.3521,-3.3525,-3.3525,-3.3533,-3.3532,-3.3539,-3.3539,-3.3544,-3.3541,-3.3541,-3.3543,-3.3544,-3.3542,-3.3541,-3.3541,-3.3542,-3.3546,-3.3546,-3.3546,-3.3546,0,-3.3486,-3.3495,-3.3493,-3.3502,-3.3504,-3.3502,-3.3509,-3.3508,-3.3513,-3.3512,-3.3512,-3.352,-3.352,-3.3526,-3.3527,-3.353,-3.3525,-3.3527,-3.3524,-3.3525,-3.3519,-3.3519,-3.35,-3.3498,-3.3518,-3.3518,-3.3518,0,-3.3476,-3.3474,-3.3483,-3.3484,-3.3487,-3.3488,-3.349,-3.3499,-3.35,-3.3505,-3.3503,-3.3504,-3.3506,-3.3505,-3.351,-3.3511,-3.3514,-3.3507,-3.3514,-3.3512,-3.3513,-3.3513,-3.3513,-3.3505,-3.3505,-3.3505,-3.3505,0,-3.3456,-3.3461,-3.3463,-3.3467,-3.3469,-3.3472,-3.3476,-3.3476,-3.3485,-3.3486,-3.3487,-3.3488,-3.3491,-3.3492,-3.3494,-3.3496,-3.3502,-3.3503,-3.3501,-3.3499,-3.3497,-3.3498,-3.352,-3.3503,-3.3503,-3.3503,-3.3503,-3.3503,-3.3441,-3.344,-3.3446,-3.3449,-3.3453,-3.3457,-3.3456,-3.3462,-3.3464,-3.3467,-3.3472,-3.3472,-3.3477,-3.3481,-3.3483,-3.3483,-3.3486,-3.3484,-3.3484,-3.3483,-3.3482,-3.3498,-3.3483,-3.3483,-3.3483,-3.3483,-3.3483,0,-3.3421,-3.3426,-3.3429,-3.3434,-3.3436,-3.3443,-3.3448,-3.3449,-3.345,-3.3454,-3.3456,-3.3457,-3.3458,-3.3464,-3.3466,-3.3465,-3.3468,-3.3465,-3.3465,-3.3465,-3.3479,-3.348,-3.3463,-3.3463,-3.3463,-3.3463,-3.3463,-3.3463,-3.3411,-3.3411,-3.3416,-3.3418,-3.3423,-3.3424,-3.3426,-3.3429,-3.3433,-3.3435,-3.3437,-3.3441,-3.3446,-3.3448,-3.345,-3.3451,-3.3451,-3.3448,-3.345,-3.3462,-3.3464,-3.3466,-3.3467,-3.3448,-3.3448,-3.3437,-3.3436,-3.3436]}]]